Regional Weather Roundup
Issued by NWS Newport/Morehead, NC

Current Version | Previous Version | Graphics & Text | Print | Product List | Glossary On
Versions: 1 2 3 4 5 6 7 8 9 10 11 12 13 14 15 16 17 18 19 20 21 22 23 24 25 26 27 28 29 30 31 32 33 34 35 36 37 38 39 40 41 42 43 44 45 46 47 48 49 50
000 ASUS42 KMHX 300510 RWRMHX WEATHER ROUNDUP FOR EASTERN NORTH CAROLINA NATIONAL WEATHER SERVICE NEWPORT/MOREHEAD CITY NC 100 AM EDT TUE SEP 30 2014 NOTE: "FAIR" INDICATES FEW OR NO CLOUDS BELOW 12,000 FEET WITH NO SIGNIFICANT WEATHER AND/OR OBSTRUCTIONS TO VISIBILITY NCZ015>017-031-032-045>047-102-103-300600- NORTH COAST CITY SKY/WX TMP DP RH WIND PRES REMARKS EDENTON LGT RAIN 65 62 92 CALM 29.94F ELIZABETH CITY CLOUDY 64 61 90 W5 29.94F KITTY HAWK CLOUDY 69 65 89 CALM 29.92S MANTEO CLOUDY 68 65 90 N5 29.93F $$ NCZ045>047-081-094-103-104-300600- CENTRAL COAST CITY SKY/WX TMP DP RH WIND PRES REMARKS FRISCO LGT RAIN 66 66 100 N5 29.92S SWANQUARTER N/A 68 N/A N/A N2G8 29.88F $$ NCZ095-097-098-100-101-300600- SOUTHERN COAST CITY SKY/WX TMP DP RH WIND PRES REMARKS BEAUFORT CLOUDY 68 66 93 N9 29.92F CEDAR ISLAND N/A 70 N/A N/A N13 29.97S JACKSONVILLE CLOUDY 67 64 90 N6 29.93F NEWPORT NOT AVBL PINEY ISLAND LGT RAIN 72 67 84 N8 29.92F WILMINGTON CLOUDY 66 64 93 N5 29.92F $$ NCZ011>013-027>030-043-044-078>080-089-090>093-098-300600- COASTAL PLAIN CITY SKY/WX TMP DP RH WIND PRES REMARKS AHOSKIE CLOUDY 62 61 97 CALM 29.96S CLINTON PTCLDY 62 62 100 CALM 29.94F ELIZABETHTOWN PTCLDY 63 63 100 CALM 29.94F FOG GOLDSBORO PTCLDY 64 63 98 CALM 29.93F GREENVILLE MOCLDY 64 64 100 CALM 29.96F HAVELOCK CLOUDY 69 66 90 N6 29.93F KENANSVILLE NOT AVBL KINSTON MOCLDY 65 64 97 N3 29.94F NEW BERN CLOUDY 68 63 84 N7 29.94F RICHLANDS CLOUDY 64 61 88 NE3 29.94S ROANOKE RAPIDS NOT AVBL ROCKY MOUNT PTCLDY 63 62 97 CALM 29.95F FOG WASHINGTON CLOUDY 64 63 96 N5 29.94F WHITEVILLE CLEAR 63 62 96 CALM 29.93F FOG $$ AMZ130-135-150-152-154-156-158-170-250-252-270-ANZ085-086-088-633-658-670-300600- MARINE OBSERVATIONS STATION/POSITION TIME TEMP WIND PRES WAVE SWELL AIR SEA DIR/SP/G HT/PER HT/PER (UTC) (F) (DEG/KT/KT) (MB) (FT/S) (FT/S) CHESAPEAKE LIGHT 0400 70 340/ 11/ 12 1014.5 BUOY 44014 0500 71 71 360/ 10/ 12 1012.4 2/ 8 2/ 8 DUCK 0500 69 73 300/ 12/ 13 1012.5 2E DUCK 0500 N/A 2/ 8 OREGON INLET 0500 69 73 330/ 5/ 7 1013.2 BUOY 44095 0500 73 N/A 3/ 8 20E OREGON INLET NOT AVBL HATTERAS CG 0500 71 75 340/ 10/ 11 1013.6 DIAMOND BUOY 0500 72 340/ 12/ 14 1012.4 3/ 8 2/ 8 CAPE LOOKOUT 0400 70 360/ 7/ 10 1013.4 BEAUFORT LAB 0500 69 75 10/ 8/ 9 1012.5 30 SE NEW RIVER 0500 73 80 20/ 14/ 16 1012.0 3/ 8 2/ 8 5 SE WRIGHTSVILL 0400 69 76 80/ 8/ 10 N/A BUOY 41002 0357 80 81 180/ 8/ 10 1012.2 3/ 8 3/ 8 BUOY 41004 0500 74 81 60/ 8/ 10 1010.9 5/ 6 5/ 6 $$

USA.gov is the U.S. government's official web portal to all federal, state and local government web resources and services.